Location: Makakahi
(40.6833°S, 175.6000°E)
Time: 07:16:36
(UTC+00:00)

DMSP B5D2-8 - Pass Details

Date: 19 January 2026
Orbit: 830 x 841 km, 98.8° (Epoch: 10 February)

Event Time Altitude Azimuth Distance (km) Brightness Sun altitude
Rises 08:49:46 0° 187° (S) 3,421 8.6 -10.7°
Reaches altitude 10° 08:53:46 10° 216° (SW) 2,479 8.5 -11.3°
Maximum altitude 08:55:44 12° 237° (WSW) 2,335 8.4 -11.6°
Drops below altitude 10° 08:57:42 10° 258° (WSW) 2,472 8.2 -11.8°
Sets 09:01:41 0° 288° (WNW) 3,398 8.3 -12.4°
